When you browse on this site, cookies collect data to enhance your experience and personalize the content and advertising you see.
Visit our Privacy Policy to learn more. By continuing to use the site, you agree to this use of cookies and data.
  • En España
  • Lista de países
  • Para 7 días
  • Temperatura del agua
  • El tiempo en el mapa
  • Informadores
  • user-avatar
    Iniciar sesión

    Tiempo cada hora Kashtelu-Branku

    Hoy, 28 Mayo, Jueves

    Tiempo Temperatura Precipitaciones Viento Presión Humedad
    00:00 +22°C° 0 mm 3 mps 733 mmHg 46%
    01:00 +22°C° 0 mm 3 mps 733 mmHg 47%
    02:00 +21°C° 0 mm 3 mps 733 mmHg 49%
    03:00 +20°C° 0 mm 3 mps 733 mmHg 50%
    04:00 +20°C° 0 mm 3 mps 733 mmHg 50%
    05:00 +19°C° 0 mm 3 mps 733 mmHg 50%
    06:00 +19°C° 0 mm 3 mps 733 mmHg 51%
    07:00 +21°C° 0 mm 3 mps 733 mmHg 46%
    08:00 +23°C° 0 mm 4 mps 733 mmHg 42%
    09:00 +25°C° 0 mm 4 mps 733 mmHg 37%
    10:00 +27°C° 0 mm 4 mps 733 mmHg 34%
    11:00 +29°C° 0 mm 4 mps 733 mmHg 30%
    12:00 +32°C° 0 mm 4 mps 733 mmHg 27%
    13:00 +32°C° 0 mm 4 mps 732 mmHg 26%
    14:00 +33°C° 0 mm 3 mps 732 mmHg 26%
    15:00 +34°C° 0 mm 3 mps 732 mmHg 25%
    16:00 +33°C° 0 mm 3 mps 731 mmHg 27%
    17:00 +33°C° 0 mm 3 mps 731 mmHg 29%
    18:00 +31°C° 0 mm 3 mps 731 mmHg 31%
    19:00 +29°C° 0 mm 2 mps 731 mmHg 35%
    20:00 +27°C° 0 mm 2 mps 731 mmHg 40%
    21:00 +25°C° 0 mm 1 mps 731 mmHg 44%
    22:00 +24°C° 0 mm 1 mps 731 mmHg 46%
    23:00 +23°C° 0 mm 1 mps 731 mmHg 47%

    Mañana, 29 Mayo, Viernes

    Tiempo Temperatura Precipitaciones Viento Presión Humedad
    00:00 +22°C° 0 mm 1 mps 730 mmHg 49%
    01:00 +22°C° 0 mm 1 mps 730 mmHg 50%
    02:00 +21°C° 0 mm 1 mps 730 mmHg 51%
    03:00 +21°C° 0 mm 1 mps 730 mmHg 52%
    04:00 +21°C° 0 mm 1 mps 730 mmHg 53%
    05:00 +20°C° 0 mm 1 mps 730 mmHg 54%
    06:00 +20°C° 0 mm 1 mps 730 mmHg 55%
    07:00 +23°C° 0 mm 2 mps 730 mmHg 49%
    08:00 +25°C° 0 mm 2 mps 730 mmHg 43%
    09:00 +27°C° 0 mm 3 mps 730 mmHg 37%
    10:00 +29°C° 0 mm 3 mps 730 mmHg 33%
    11:00 +31°C° 0 mm 3 mps 730 mmHg 29%
    12:00 +34°C° 0 mm 2 mps 730 mmHg 25%
    13:00 +34°C° 0 mm 2 mps 729 mmHg 24%
    14:00 +35°C° 0 mm 2 mps 729 mmHg 22%
    15:00 +35°C° 0 mm 2 mps 729 mmHg 21%
    16:00 +34°C° 0 mm 2 mps 728 mmHg 23%
    17:00 +34°C° 0 mm 2 mps 728 mmHg 24%
    18:00 +32°C° 0 mm 1 mps 727 mmHg 26%
    19:00 +30°C° 0 mm 1 mps 727 mmHg 33%
    20:00 +27°C° 0 mm 1 mps 727 mmHg 40%
    21:00 +24°C° 0 mm 1 mps 727 mmHg 47%
    22:00 +24°C° 0 mm 1 mps 727 mmHg 50%
    23:00 +23°C° 0 mm 1 mps 727 mmHg 53%

    Pasado mañana, 30 Mayo, Sábado

    Tiempo Temperatura Precipitaciones Viento Presión Humedad
    00:00 +23°C° 0 mm 1 mps 727 mmHg 55%
    01:00 +22°C° 0 mm 1 mps 727 mmHg 56%
    02:00 +22°C° 0 mm 1 mps 727 mmHg 57%
    03:00 +22°C° 0 mm 1 mps 727 mmHg 58%
    04:00 +22°C° 0 mm 1 mps 727 mmHg 59%
    05:00 +22°C° 0 mm 1 mps 727 mmHg 59%
    06:00 +22°C° 0 mm 1 mps 727 mmHg 60%
    07:00 +24°C° 0 mm 1 mps 727 mmHg 52%
    08:00 +27°C° 0 mm 1 mps 728 mmHg 44%
    09:00 +30°C° 0 mm 2 mps 728 mmHg 36%
    10:00 +31°C° 0 mm 2 mps 728 mmHg 31%
    11:00 +34°C° 0 mm 2 mps 728 mmHg 27%
    12:00 +35°C° 0 mm 2 mps 728 mmHg 22%
    13:00 +36°C° 0 mm 2 mps 727 mmHg 21%
    14:00 +36°C° 0 mm 2 mps 727 mmHg 20%
    15:00 +36°C° 0 mm 2 mps 726 mmHg 19%
    16:00 +35°C° 0 mm 2 mps 726 mmHg 23%
    17:00 +34°C° 0 mm 2 mps 726 mmHg 27%
    18:00 +32°C° 0 mm 2 mps 726 mmHg 31%
    19:00 +30°C° 0 mm 2 mps 726 mmHg 38%
    20:00 +27°C° 0 mm 2 mps 726 mmHg 44%
    21:00 +25°C° 0 mm 1 mps 726 mmHg 51%
    22:00 +25°C° 0 mm 1 mps 726 mmHg 52%
    23:00 +24°C° 0 mm 1 mps 726 mmHg 53%

    31 Mayo, Domingo

    Tiempo Temperatura Precipitaciones Viento Presión Humedad
    00:00 +24°C° 0 mm 1 mps 726 mmHg 54%
    01:00 +23°C° 0 mm 1 mps 726 mmHg 55%
    02:00 +23°C° 0 mm 1 mps 726 mmHg 56%
    03:00 +20°C° 0 mm 0 mps 725 mmHg 56%
    04:00 +22°C° 0 mm 1 mps 725 mmHg 57%
    05:00 +22°C° 0 mm 1 mps 726 mmHg 57%
    06:00 +22°C° 0 mm 1 mps 726 mmHg 57%
    07:00 +24°C° 0 mm 1 mps 726 mmHg 52%
    08:00 +26°C° 0 mm 2 mps 726 mmHg 47%
    09:00 +27°C° 0 mm 2 mps 727 mmHg 42%
    10:00 +29°C° 0 mm 2 mps 727 mmHg 39%
    11:00 +30°C° 0 mm 2 mps 727 mmHg 35%
    12:00 +32°C° 0 mm 2 mps 727 mmHg 31%
    13:00 +33°C° 0 mm 3 mps 727 mmHg 31%
    14:00 +33°C° 0 mm 3 mps 726 mmHg 31%
    15:00 +34°C° 0 mm 4 mps 726 mmHg 30%
    16:00 +33°C° 0 mm 4 mps 726 mmHg 32%
    17:00 +31°C° 0 mm 3 mps 726 mmHg 34%
    18:00 +31°C° 0 mm 3 mps 726 mmHg 35%
    19:00 +28°C° 0.1 mm 3 mps 726 mmHg 44%
    20:00 +26°C° 0.1 mm 2 mps 727 mmHg 53%
    21:00 +23°C° 0.1 mm 2 mps 727 mmHg 61%
    22:00 +21°C° 0 mm 2 mps 727 mmHg 64%
    23:00 +21°C° 0 mm 2 mps 727 mmHg 67%

    1 Junio, Lunes

    Tiempo Temperatura Precipitaciones Viento Presión Humedad
    00:00 +21°C° 0 mm 1 mps 728 mmHg 70%
    01:00 +20°C° 0 mm 1 mps 727 mmHg 71%
    02:00 +20°C° 0 mm 1 mps 727 mmHg 72%
    03:00 +19°C° 0 mm 1 mps 727 mmHg 74%
    04:00 +19°C° 0 mm 1 mps 727 mmHg 74%
    05:00 +19°C° 0 mm 1 mps 727 mmHg 75%
    06:00 +20°C° 0 mm 1 mps 727 mmHg 75%
    07:00 +22°C° 0 mm 1 mps 728 mmHg 66%
    08:00 +24°C° 0 mm 1 mps 728 mmHg 57%
    09:00 +27°C° 0 mm 1 mps 728 mmHg 49%
    10:00 +29°C° 0 mm 1 mps 729 mmHg 43%
    11:00 +31°C° 0 mm 1 mps 729 mmHg 38%
    12:00 +33°C° 0 mm 1 mps 729 mmHg 32%
    13:00 +33°C° 0 mm 1 mps 728 mmHg 31%
    14:00 +33°C° 0 mm 1 mps 728 mmHg 29%
    15:00 +33°C° 0 mm 1 mps 728 mmHg 28%
    16:00 +32°C° 0 mm 2 mps 728 mmHg 32%
    17:00 +31°C° 0 mm 2 mps 727 mmHg 35%
    18:00 +30°C° 0 mm 3 mps 727 mmHg 39%
    19:00 +28°C° 0 mm 2 mps 727 mmHg 47%
    20:00 +26°C° 0 mm 2 mps 728 mmHg 55%
    21:00 +24°C° 0 mm 2 mps 728 mmHg 63%
    22:00 +24°C° 0 mm 1 mps 728 mmHg 64%
    23:00 +23°C° 0 mm 1 mps 727 mmHg 65%

    2 Junio, Martes

    Tiempo Temperatura Precipitaciones Viento Presión Humedad
    00:00 +23°C° 0 mm 1 mps 727 mmHg 67%
    01:00 +22°C° 0 mm 1 mps 727 mmHg 67%
    02:00 +22°C° 0 mm 1 mps 727 mmHg 68%
    03:00 +21°C° 0 mm 1 mps 726 mmHg 69%
    04:00 +21°C° 0 mm 1 mps 726 mmHg 70%
    05:00 +21°C° 0 mm 1 mps 726 mmHg 70%
    06:00 +21°C° 0 mm 1 mps 726 mmHg 71%
    07:00 +24°C° 0 mm 1 mps 727 mmHg 63%
    08:00 +26°C° 0 mm 1 mps 727 mmHg 55%
    09:00 +28°C° 0 mm 2 mps 727 mmHg 47%
    10:00 +29°C° 0 mm 2 mps 727 mmHg 42%
    11:00 +31°C° 0 mm 3 mps 727 mmHg 38%
    12:00 +33°C° 0 mm 4 mps 727 mmHg 33%
    13:00 +33°C° 0 mm 4 mps 726 mmHg 33%
    14:00 +33°C° 0 mm 4 mps 725 mmHg 33%
    15:00 +33°C° 0 mm 4 mps 725 mmHg 32%
    16:00 +32°C° 0 mm 4 mps 725 mmHg 35%
    17:00 +30°C° 0 mm 4 mps 724 mmHg 38%
    18:00 +28°C° 0 mm 4 mps 724 mmHg 41%
    19:00 +26°C° 0 mm 3 mps 724 mmHg 46%
    20:00 +24°C° 0 mm 2 mps 724 mmHg 51%
    21:00 +21°C° 0 mm 2 mps 724 mmHg 56%
    22:00 +21°C° 0 mm 1 mps 724 mmHg 61%
    23:00 +20°C° 0 mm 1 mps 724 mmHg 66%
    Mostrar más